KE5HYT Weather Reports


time (UTC)temp
F
wind
direction
speed
knots
gust
knots
rain 1hr
in
rain 24hr
in
rain mn
in
humidity
%
barometer
mb
20260906060904 78 0 0.0 0.0 0.00 0.00 0.00 89 1011.3
20260906060003 78 0 0.0 0.0 0.00 0.00 0.00 89 1011.6
20260906055403 78 0 0.0 0.0 0.00 0.00 0.00 89 1011.5
20260906054503 78 190 0.9 2.6 0.00 0.00 0.00 88 1011.5
20260906053603 78 177 1.7 10.4 0.00 0.00 0.00 88 1011.8
20260906052704 78 0 0.0 0.0 0.00 0.00 0.00 87 1011.6
20260906051803 78 0 0.0 0.0 0.00 0.00 0.00 88 1011.6
20260906050924 78 0 0.0 0.0 0.00 0.00 0.00 88 1011.5
20260906050006 78 0 0.0 0.0 0.00 0.00 0.00 88 1011.4
20260906045403 78 0 0.0 0.0 0.00 0.00 0.00 88 1011.5
20260906044503 79 0 0.0 0.0 0.00 0.00 0.00 88 1011.4
20260906043603 79 0 0.0 0.0 0.00 0.00 0.00 86 1011.3
20260906042703 79 0 0.0 0.0 0.00 0.00 0.00 87 1011.6
20260906041803 79 0 0.0 0.0 0.00 0.00 0.00 87 1011.5
20260906040904 79 0 0.0 0.0 0.00 0.00 0.00 86 1011.4
20260906040004 79 0 0.0 0.0 0.00 0.00 0.00 86 1011.4
20260906035403 80 0 0.0 0.0 0.00 0.00 0.00 86 1011.4
20260906034503 80 0 0.0 0.0 0.00 0.00 0.00 86 1011.3
20260906033604 80 0 0.0 0.0 0.00 0.00 0.00 85 1011.3
20260906032704 80 0 0.0 0.0 0.00 0.00 0.00 84 1011.4
20260906031803 80 0 0.0 0.0 0.00 0.00 0.00 84 1011.4
20260906030903 81 0 0.0 0.0 0.00 0.00 0.00 83 1011.3
20260906030003 81 0 0.0 0.0 0.00 0.00 0.00 83 1011.2
20260906025403 81 0 0.0 0.0 0.00 0.00 0.00 81 1011.2
20260906024504 81 0 0.0 0.0 0.00 0.00 0.00 79 1011.3
20260906023603 81 0 0.0 0.0 0.00 0.00 0.00 80 1011.2
20260906022703 81 0 0.0 0.0 0.00 0.00 0.00 81 1010.9
20260906021803 81 0 0.0 0.0 0.00 0.00 0.00 81 1010.8
20260906020903 82 0 0.0 0.0 0.00 0.00 0.00 80 1010.9
20260906020004 82 0 0.0 0.0 0.00 0.00 0.00 79 1010.7
20260906015404 82 0 0.0 0.0 0.00 0.00 0.00 77 1010.6
20260906014503 82 0 0.0 0.0 0.00 0.00 0.00 78 1010.6
20260906013624 83 0 0.0 0.0 0.00 0.00 0.00 77 1010.6
20260906012703 83 0 0.0 0.0 0.00 0.00 0.00 77 1010.6
20260906011825 84 0 0.0 0.0 0.00 0.00 0.00 73 1010.6
20260906010903 84 0 0.0 0.0 0.00 0.00 0.00 75 1010.3
20260906010003 84 0 0.0 0.0 0.00 0.00 0.00 73 1010.3
20260906005403 85 0 0.0 0.0 0.00 0.00 0.00 71 1010.2
20260906004524 86 0 0.0 0.0 0.00 0.00 0.00 73 1010.1
20260906003603 87 0 0.0 0.0 0.00 0.00 0.00 72 1010.0
20260906002725 87 0 0.0 0.0 0.00 0.00 0.00 67 1009.8
20260906001824 88 0 0.0 0.0 0.00 0.00 0.00 70 1010.1
20260906000903 88 0 0.0 0.0 0.00 0.00 0.00 66 1010.1
20260906000024 89 0 0.0 0.0 0.00 0.00 0.00 64 1010.2
20260905235403 90 0 0.0 0.0 0.00 0.00 0.00 65 1010.2
20260905234503 90 0 0.0 0.0 0.00 0.00 0.00 64 1010.2
20260905233604 91 0 0.0 0.0 0.00 0.00 0.00 63 1010.2
20260905232703 92 0 0.0 0.0 0.00 0.00 0.00 63 1010.3
20260905231824 92 0 0.0 0.0 0.00 0.00 0.00 60 1010.2
20260905230903 93 33 0.0 0.9 0.00 0.00 0.00 59 1010.1
20260905230003 94 33 0.0 0.9 0.00 0.00 0.00 59 1010.2
20260905225403 94 32 0.0 0.9 0.00 0.00 0.00 57 1010.1
20260905224503 95 33 0.0 0.9 0.00 0.00 0.00 54 1010.1
20260905223625 96 90 0.9 2.6 0.00 0.00 0.00 52 1010.2
20260905222724 97 143 0.9 1.7 0.00 0.00 0.00 48 1010.1
20260905221803 98 143 0.9 2.6 0.00 0.00 0.00 48 1010.2
20260905220924 99 176 0.9 4.3 0.00 0.00 0.00 45 1010.2
20260905220004 99 112 0.9 4.3 0.00 0.00 0.00 44 1010.3
20260905215403 100 162 0.9 3.5 0.00 0.00 0.00 46 1010.5
20260905214504 99 181 2.6 4.3 0.00 0.00 0.00 45 1010.4
20260905213603 99 173 1.7 5.2 0.00 0.00 0.00 44 1010.5
20260905212703 100 179 1.7 3.5 0.00 0.00 0.00 46 1010.5
20260905211824 100 190 1.7 3.5 0.00 0.00 0.00 43 1010.6
20260905210903 99 176 1.7 4.3 0.00 0.00 0.00 40 1010.7
20260905210004 100 148 0.9 4.3 0.00 0.00 0.00 45 1010.7
20260905205403 100 50 0.9 4.3 0.00 0.00 0.00 43 1010.7
20260905204503 100 359 1.7 6.1 0.00 0.00 0.00 46 1010.6
20260905203624 100 15 0.9 3.5 0.00 0.00 0.00 43 1010.9
20260905202703 99 82 0.9 2.6 0.00 0.00 0.00 43 1011.0
20260905201804 100 16 0.9 5.2 0.00 0.00 0.00 47 1011.0
20260905200903 100 9 0.9 3.5 0.00 0.00 0.00 47 1011.2
20260905200003 99 8 0.9 3.5 0.00 0.00 0.00 50 1011.6
20260905195403 100 69 0.9 3.5 0.00 0.00 0.00 49 1011.6
20260905194503 100 26 1.7 4.3 0.00 0.00 0.00 52 1011.7
20260905193603 99 157 1.7 3.5 0.00 0.00 0.00 46 1011.7
20260905192703 99 68 0.9 3.5 0.00 0.00 0.00 52 1011.9
20260905191824 99 21 1.7 7.8 0.00 0.00 0.00 51 1012.1
20260905190903 98 34 0.9 5.2 0.00 0.00 0.00 52 1012.3
20260905190003 98 29 0.9 5.2 0.00 0.00 0.00 53 1012.4
20260905185403 99 94 0.9 2.6 0.00 0.00 0.00 49 1012.4
20260905184504 99 148 1.7 6.1 0.00 0.00 0.00 50 1012.4
20260905183603 98 160 2.6 6.1 0.00 0.00 0.00 52 1012.4
20260905182703 97 142 0.9 3.5 0.00 0.00 0.00 58 1012.5
20260905181824 96 330 1.7 6.1 0.00 0.00 0.00 53 1012.7
20260905180924 98 10 1.7 6.1 0.00 0.00 0.00 54 1012.9
20260905180004 96 328 1.7 7.0 0.00 0.00 0.00 55 1012.9
20260905175404 97 343 1.7 7.0 0.00 0.00 0.00 56 1012.9
20260905174503 97 54 0.9 5.2 0.00 0.00 0.00 58 1012.9
20260905173604 97 320 1.7 7.8 0.00 0.00 0.00 53 1013.0
20260905172704 97 332 0.9 7.8 0.00 0.00 0.00 53 1013.2
20260905171803 97 15 1.7 4.3 0.00 0.00 0.00 55 1013.2
20260905170903 95 1 1.7 5.2 0.00 0.00 0.00 57 1013.3
20260905170003 96 1 1.7 5.2 0.00 0.00 0.00 58 1013.3
20260905165424 95 355 1.7 5.2 0.00 0.00 0.00 58 1013.5
20260905164503 95 316 0.9 6.1 0.00 0.00 0.00 57 1013.7
20260905163604 95 0 0.0 0.0 0.00 0.00 0.00 56 1013.7
20260905162724 94 0 0.0 0.0 0.00 0.00 0.00 60 1013.8
20260905161803 95 0 0.0 0.0 0.00 0.00 0.00 56 1013.8
20260905160903 93 0 0.0 0.0 0.00 0.00 0.00 61 1013.9
20260905160024 93 0 0.0 0.0 0.00 0.00 0.00 61 1014.0
20260905155403 92 0 0.0 0.0 0.00 0.00 0.00 66 1014.1
20260905154503 92 0 0.0 0.0 0.00 0.00 0.00 64 1014.0
20260905153603 91 0 0.0 0.0 0.00 0.00 0.00 66 1014.0
20260905152703 90 0 0.0 0.0 0.00 0.00 0.00 71 1014.0
20260905151803 90 0 0.0 0.0 0.00 0.00 0.00 71 1014.1
20260905150903 89 0 0.0 0.0 0.00 0.00 0.00 73 1014.1
20260905150003 88 0 0.0 0.0 0.00 0.00 0.00 75 1014.1
20260905145403 88 0 0.0 0.0 0.00 0.00 0.00 75 1014.0
20260905144503 86 0 0.0 0.0 0.00 0.00 0.00 79 1014.1
20260905143603 85 0 0.0 0.0 0.00 0.00 0.00 81 1014.2
20260905142724 83 0 0.0 0.0 0.00 0.00 0.00 85 1014.2
20260905141803 82 0 0.0 0.0 0.00 0.00 0.00 85 1014.1
20260905140903 80 0 0.0 0.0 0.00 0.00 0.00 88 1014.0
20260905140004 78 0 0.0 0.0 0.00 0.00 0.00 92 1014.0
20260905135403 78 0 0.0 0.0 0.00 0.00 0.00 92 1014.0
20260905134503 77 0 0.0 0.0 0.00 0.00 0.00 94 1014.0
20260905133603 76 0 0.0 0.0 0.00 0.00 0.00 95 1014.0
20260905132703 76 0 0.0 0.0 0.00 0.00 0.00 96 1014.1
20260905131824 76 0 0.0 0.0 0.00 0.00 0.00 96 1014.1
20260905130924 75 0 0.0 0.0 0.00 0.00 0.00 96 1014.0
20260905130003 75 0 0.0 0.0 0.00 0.00 0.00 96 1014.1
20260905125403 74 0 0.0 0.0 0.00 0.00 0.00 96 1014.1
20260905124503 74 0 0.0 0.0 0.00 0.00 0.00 96 1014.0
20260905123603 74 0 0.0 0.0 0.00 0.00 0.00 96 1014.0
20260905122703 73 0 0.0 0.0 0.00 0.00 0.00 96 1014.1
20260905121803 73 0 0.0 0.0 0.00 0.00 0.00 96 1014.0
20260905120903 73 0 0.0 0.0 0.00 0.00 0.00 96 1014.1
20260905120004 73 0 0.0 0.0 0.00 0.00 0.00 96 1014.0
20260905115403 73 0 0.0 0.0 0.00 0.00 0.00 96 1014.0
20260905114503 73 0 0.0 0.0 0.00 0.00 0.00 96 1013.9
20260905113603 73 0 0.0 0.0 0.00 0.00 0.00 96 1013.7
20260905112703 73 0 0.0 0.0 0.00 0.00 0.00 95 1013.7
20260905111803 73 0 0.0 0.0 0.00 0.00 0.00 95 1013.6
20260905110904 73 0 0.0 0.0 0.00 0.00 0.00 95 1013.5
20260905110003 73 0 0.0 0.0 0.00 0.00 0.00 95 1013.4
20260905105403 73 0 0.0 0.0 0.00 0.00 0.00 95 1013.4
20260905104503 73 0 0.0 0.0 0.00 0.00 0.00 95 1013.3
20260905103603 73 0 0.0 0.0 0.00 0.00 0.00 95 1013.2
20260905102703 74 0 0.0 0.0 0.00 0.00 0.00 95 1013.1
20260905101803 74 0 0.0 0.0 0.00 0.00 0.00 95 1013.1
20260905100903 74 0 0.0 0.0 0.00 0.00 0.00 95 1013.1
20260905100004 74 0 0.0 0.0 0.00 0.00 0.00 95 1013.1
20260905095403 74 0 0.0 0.0 0.00 0.00 0.00 95 1012.9
20260905094525 74 0 0.0 0.0 0.00 0.00 0.00 95 1012.8
20260905093604 74 0 0.0 0.0 0.00 0.00 0.00 95 1012.7
20260905092703 74 0 0.0 0.0 0.00 0.00 0.00 95 1012.5
20260905091803 74 0 0.0 0.0 0.00 0.00 0.00 94 1012.6
20260905090903 74 0 0.0 0.0 0.00 0.00 0.00 94 1012.5
20260905090004 74 0 0.0 0.0 0.00 0.00 0.00 94 1012.6
20260905085404 74 0 0.0 0.0 0.00 0.00 0.00 94 1012.5
20260905084503 74 0 0.0 0.0 0.00 0.00 0.00 94 1012.6
20260905083603 74 0 0.0 0.0 0.00 0.00 0.00 94 1012.7
20260905082703 74 0 0.0 0.0 0.00 0.00 0.00 94 1012.8
20260905081803 75 0 0.0 0.0 0.00 0.00 0.00 94 1012.8
20260905080903 75 0 0.0 0.0 0.00 0.00 0.00 93 1012.7
20260905080004 75 0 0.0 0.0 0.00 0.00 0.00 93 1012.7
20260905075424 75 0 0.0 0.0 0.00 0.00 0.00 93 1012.5
20260905074503 75 0 0.0 0.0 0.00 0.00 0.00 93 1012.6
20260905073603 75 0 0.0 0.0 0.00 0.00 0.00 93 1012.7
20260905072725 75 0 0.0 0.0 0.00 0.00 0.00 92 1012.7
20260905071803 76 0 0.0 0.0 0.00 0.00 0.00 92 1012.7
20260905070904 76 0 0.0 0.0 0.00 0.00 0.00 92 1012.7
20260905070004 76 0 0.0 0.0 0.00 0.00 0.00 92 1012.7
20260905065403 76 0 0.0 0.0 0.00 0.00 0.00 92 1012.7
20260905064524 76 0 0.0 0.0 0.00 0.00 0.00 92 1012.7
20260905063603 76 0 0.0 0.0 0.00 0.00 0.00 92 1012.8
20260905062703 76 0 0.0 0.0 0.00 0.00 0.00 92 1012.9
20260905061803 76 0 0.0 0.0 0.00 0.00 0.00 92 1013.0